[[{"header":{"parameterUnit":"m.s-1","parameterCategory":1,"la1":30.2991,"la2":30.254,"lo1":-89.0895,"lo2":-89.0444,"dy":0.0017,"dx":0.0017,"nx":28,"ny":28,"refTime":"2025-08-04T21:00:00:Z","depth":0,"parameterNumber":2,"parameterNumberName":"U-component_of_WINDS"},"data":[0,0,0,0,0,0,0,0,0,0,0,0,0,0,0,0,0,0,0,0,0,0,0,0,0,0,0,0,0,0,0,0,0,0,0,0,0,0,0,0,0,0,0,0,0,0,0,0,0,0,0,0,0,0,0,0,0,0,-1.9869,-1.987,0,-1.9918,-1.9919,-1.9919,-1.9923,-1.9922,-1.9921,-1.9921,-1.9967,-1.9969,-1.997,0,0,0,0,0,0,0,0,0,0,0,0,0,-1.9777,-1.9778,-1.9869,-1.987,-1.9871,-1.9918,-1.9919,-1.9919,-1.9923,-1.9922,-1.9921,-1.9921,-1.9966,-1.9968,-1.9971,0,0,0,0,0,0,0,0,0,0,0,0,0,-1.982,-1.9779,-1.9869,-1.9878,-1.9879,-1.9918,-1.9919,-1.9919,-1.9923,-1.9922,-1.9921,-1.992,-1.9966,-1.9968,-1.9971,-2.0003,0,0,-1.9979,-1.998,0,0,0,0,0,0,0,0,-1.9818,-1.9824,-1.9876,-1.9878,-1.9879,-1.9914,-1.9903,-1.9947,-1.9923,-1.9906,-1.9921,-1.992,-1.995,-1.9953,-1.9964,-2.0005,-2.0007,-1.9979,-1.9981,-1.9982,-1.9982,0,0,0,0,0,0,0,-1.9815,-1.9822,-1.9889,-1.9877,-1.9879,-1.9879,-1.9884,-1.9911,-1.9932,-1.9908,-1.9908,-1.9914,-1.995,-1.9962,-1.9965,-2.0007,-1.9979,-1.9981,-1.9983,-1.9984,-2.0077,-2.0078,0,0,0,0,0,0,-1.9811,-1.9819,-1.9887,-1.989,-1.9846,-1.9881,-1.9887,-1.9903,-1.9931,-1.9935,-1.9914,-1.9914,-1.9958,-1.9962,-1.9967,-2.0006,-1.9982,-1.9984,-1.9985,-2.0076,-2.0078,-2.0079,0,0,0,0,0,0,-1.9809,-1.9817,-1.9885,-1.9855,-1.9863,-1.9884,-1.9902,-1.9905,-1.9916,-1.9937,-1.994,-1.9923,-1.9957,-1.9963,-1.9994,-2.0008,-1.9985,-1.9988,-2.0075,-2.0077,-2.0078,-2.0085,0,0,0,0,0,0,-1.9806,-1.9816,-1.9829,-1.9855,-1.9865,-1.9912,-1.9903,-1.9906,-1.9921,-1.9921,-1.9945,-1.9948,-1.9957,-1.999,-1.9997,-2.0011,-1.999,-2.0074,-2.0076,-2.0078,-2.0084,-2.0087,-2.0089,0,0,0,0,0,-1.9803,-1.9828,-1.9829,-1.9837,-1.9882,-1.9913,-1.9919,-1.9929,-1.9922,-1.9935,-1.9948,-1.9948,-2.0006,-1.9993,-2.0001,-2.0016,-2.0073,-2.0075,-2.0078,-2.0082,-2.0086,-2.0089,0,0,0,0,0,0,-1.98,-1.9831,-1.9833,-1.9868,-1.9888,-1.9914,-1.993,-1.9932,-1.9954,-1.9952,-1.9963,-1.9969,-1.9999,-2.0011,-1.9997,-2.0049,-2.0039,-2.0042,-2.004,-2.0043,-2.0046,-2.0042,-1.9992,0,0,0,0,0,-1.9804,-1.9828,-1.9853,-1.9881,-1.9892,-1.9909,-1.9923,-1.993,-1.995,-1.9958,-1.9974,-1.9993,-2.0016,-2.003,-2.0052,-2.0086,-2.0091,-2.01,-2.0103,-2.0105,-2.0107,-2.0126,-2.013,-2.0086,-2.0086,-2.0085,0,0,-1.9812,-1.9832,-1.9846,-1.9882,-1.9898,-1.9922,-1.9916,-1.9941,-1.9959,-1.9962,-1.9992,-2.0005,-2.0027,-2.0059,-2.0074,-2.007,-2.0121,-2.0107,-2.0109,-2.011,-2.0129,-2.0133,-2.0137,-2.0087,-2.0087,-2.0086,0,0,-1.9838,-1.9855,-1.9881,-1.9898,-1.9924,-1.9936,-1.9942,-1.9967,-1.9976,-2.0007,-2.0011,-2.0031,-2.007,-2.0086,-2.0099,-2.0133,-2.0133,-2.014,-2.0153,-2.0172,-2.0175,-2.0178,-2.019,-2.0194,-2.0143,-2.0143,-2.0143,0,-1.9843,-1.988,-1.9893,-1.9919,-1.9935,-1.9941,-1.9967,-1.9982,-2.0013,-2.0023,-2.0018,-2.0068,-2.0083,-2.012,-2.0128,-2.0139,-2.0146,-2.0136,-2.0174,-2.0177,-2.018,-2.0192,-2.0196,-2.0143,-2.0143,-2.0143,-2.0143,0,-1.9886,-1.9912,-1.9929,-1.9961,-1.9978,-2.0004,-2.002,-2.0036,-2.0042,-2.0054,-2.0086,-2.0105,-2.0131,-2.0141,-2.0146,-2.0178,-2.0175,-2.0172,-2.0161,-2.0185,-2.0196,-2.02,-2.0144,-2.0144,-2.0144,-2.0144,0,0,-1.991,-1.995,-1.9956,-1.9971,-2.0001,-2.002,-2.0046,-2.0073,-2.0087,-2.0109,-2.013,-2.0164,-2.0162,-2.0177,-2.0184,-2.02,-2.0226,-2.0195,-2.0196,-2.02,-2.0263,-2.0264,-2.0269,-2.0227,-2.0228,-2.0228,-2.0261,0,-1.9938,-1.9986,-1.9999,-2.0039,-2.0063,-2.007,-2.0093,-2.0113,-2.0125,-2.0147,-2.016,-2.0184,-2.0179,-2.0189,-2.0205,-2.0219,-2.0238,-2.0217,-2.0246,-2.0247,-2.0239,-2.0275,-2.0276,-2.0305,-2.0265,-2.0266,-2.0266,0,-1.9978,-2.0002,-2.0045,-2.0073,-2.0083,-2.0103,-2.013,-2.015,-2.0174,-2.0182,-2.02,-2.0206,-2.0232,-2.0222,-2.0259,-2.0244,-2.0257,-2.0266,-2.0267,-2.0269,-2.0257,-2.0277,-2.0315,-2.0319,-2.0273,-2.0273,-2.0272,0,-1.999,-2.0034,-2.0065,-2.0077,-2.0111,-2.0125,-2.0139,-2.0162,-2.0178,-2.0201,-2.0211,-2.0237,-2.025,-2.0269,-2.0282,-2.0273,-2.0318,-2.0308,-2.0324,-2.0324,-2.0332,-2.0331,-2.0372,-2.0342,-2.0342,-2.0342,-2.0342,0,-2.002,-2.0046,-2.0071,-2.009,-2.0119,-2.0135,-2.0163,-2.0177,-2.0198,-2.0219,-2.0227,-2.0246,-2.0262,-2.0284,-2.0294,-2.0323,-2.0329,-2.0336,-2.0338,-2.0335,-2.0334,-2.0342,-2.034,-2.0343,-2.0343,-2.0342,-2.0342,0,-2.0038,-2.0057,-2.0091,-2.0121,-2.0129,-2.0149,-2.0174,-2.0192,-2.0206,-2.0233,-2.024,-2.0261,-2.0288,-2.0303,-2.0335,-2.0342,-2.0374,-2.0376,-2.0367,-2.0367,-2.0382,-2.038,-2.0429,-2.0436,-2.0402,-2.0402,-2.0403,0,-2.0056,-2.0076,-2.0109,-2.0125,-2.014,-2.0165,-2.0182,-2.0198,-2.0215,-2.0244,-2.0259,-2.0286,-2.0308,-2.035,-2.0368,-2.0393,-2.0394,-2.041,-2.0398,-2.0394,-2.0394,-2.0392,-2.0394,-2.0411,-2.0412,-2.0412,-2.0412,0,-2.0085,-2.0093,-2.0118,-2.0147,-2.0167,-2.019,-2.0212,-2.0224,-2.0244,-2.0263,-2.0291,-2.0309,-2.0343,-2.037,-2.0397,-2.0411,-2.0414,-2.0416,-2.0421,-2.0417,-2.0411,-2.0414,-2.0371,-2.0414,-2.0414,-2.0414,-2.0414,-2.0414,-2.0103,-2.0121,-2.0148,-2.0175,-2.0194,-2.0216,-2.0235,-2.0252,-2.0276,-2.0306,-2.0314,-2.0344,-2.0367,-2.0404,-2.0419,-2.0441,-2.0439,-2.0446,-2.0447,-2.0449,-2.0449,-2.0408,-2.0446,-2.0446,-2.0446,-2.0446,-2.0446,0,-2.0131,-2.0149,-2.0175,-2.0207,-2.0229,-2.0233,-2.0258,-2.0276,-2.0302,-2.0325,-2.0347,-2.038,-2.0406,-2.0427,-2.0453,-2.0468,-2.047,-2.0474,-2.0473,-2.0476,-2.045,-2.0443,-2.0472,-2.0472,-2.0472,-2.0472,-2.0472,-2.0472,-2.0149,-2.0181,-2.0193,-2.0234,-2.0252,-2.0282,-2.0296,-2.0315,-2.0334,-2.037,-2.0393,-2.0407,-2.0428,-2.0457,-2.0481,-2.0487,-2.0496,-2.0499,-2.0505,-2.048,-2.0477,-2.0475,-2.0468,-2.0502,-2.0502,-2.0528,-2.0529,-2.0529]},{"header":{"parameterUnit":"m.s-1","parameterCategory":1,"la1":30.2991,"la2":30.254,"lo1":-89.0895,"lo2":-89.0444,"dy":0.0017,"dx":0.0017,"nx":28,"ny":28,"refTime":"2025-08-04T21:00:00:Z","depth":0,"parameterNumber":3,"parameterNumberName":"V-component_of_WINDS"},"data":[0,0,0,0,0,0,0,0,0,0,0,0,0,0,0,0,0,0,0,0,0,0,0,0,0,0,0,0,0,0,0,0,0,0,0,0,0,0,0,0,0,0,0,0,0,0,0,0,0,0,0,0,0,0,0,0,0,0,0.9342,0.9343,0,0.9379,0.9379,0.9379,0.9421,0.9422,0.9423,0.9423,0.9457,0.9458,0.9458,0,0,0,0,0,0,0,0,0,0,0,0,0,0.9306,0.9306,0.9342,0.9343,0.9343,0.9379,0.9379,0.938,0.9421,0.9422,0.9423,0.9424,0.9457,0.9458,0.9458,0,0,0,0,0,0,0,0,0,0,0,0,0,0.933,0.9307,0.9342,0.9368,0.9371,0.9378,0.9379,0.938,0.9421,0.9422,0.9423,0.9424,0.9457,0.9458,0.9458,0.9442,0,0,0.946,0.946,0,0,0,0,0,0,0,0,0.9328,0.9331,0.9364,0.9367,0.937,0.9397,0.9379,0.94,0.9421,0.9402,0.9423,0.9424,0.9436,0.9438,0.9443,0.9443,0.9445,0.946,0.946,0.946,0.946,0,0,0,0,0,0,0,0.9327,0.933,0.9357,0.9365,0.9368,0.9377,0.9382,0.9383,0.9413,0.9404,0.9407,0.9411,0.9438,0.9442,0.9444,0.9445,0.946,0.946,0.946,0.946,0.9432,0.9431,0,0,0,0,0,0,0.9322,0.9328,0.9355,0.9358,0.9351,0.9377,0.9382,0.9387,0.9413,0.9418,0.941,0.9413,0.9441,0.9444,0.9445,0.9427,0.946,0.9461,0.9461,0.9433,0.9432,0.9431,0,0,0,0,0,0,0.9321,0.9324,0.9354,0.9344,0.9348,0.9377,0.9382,0.9387,0.9392,0.9418,0.9423,0.9409,0.9442,0.9445,0.9442,0.9429,0.9461,0.9461,0.9435,0.9433,0.9432,0.939,0,0,0,0,0,0,0.9319,0.9323,0.9318,0.9343,0.9349,0.9351,0.9381,0.9387,0.9393,0.9397,0.9419,0.9423,0.9443,0.9441,0.9443,0.943,0.9462,0.9436,0.9434,0.9432,0.9393,0.9387,0.9383,0,0,0,0,0,0.9318,0.9305,0.9318,0.9321,0.9343,0.935,0.9353,0.9377,0.9392,0.9386,0.9403,0.9423,0.943,0.9441,0.9443,0.943,0.9437,0.9435,0.9432,0.9395,0.9388,0.9383,0,0,0,0,0,0,0.9276,0.9308,0.9323,0.9318,0.9331,0.9357,0.9351,0.9369,0.9378,0.9381,0.9409,0.9414,0.9407,0.9419,0.943,0.9415,0.9436,0.9434,0.9407,0.9401,0.9396,0.9393,0.9462,0,0,0,0,0,0.9266,0.927,0.9298,0.929,0.9296,0.9322,0.9326,0.9344,0.9358,0.9364,0.938,0.9392,0.9398,0.94,0.9407,0.9395,0.9399,0.9387,0.9382,0.9378,0.9375,0.9368,0.9362,0.9424,0.9424,0.9424,0,0,0.9246,0.9264,0.9265,0.9282,0.9295,0.9297,0.9327,0.9328,0.933,0.9364,0.9362,0.9374,0.939,0.9382,0.938,0.9391,0.9359,0.9375,0.9371,0.9371,0.9365,0.9359,0.9354,0.9422,0.9422,0.9422,0,0,0.9209,0.9224,0.9219,0.9231,0.9249,0.9266,0.9265,0.9289,0.9298,0.9297,0.9322,0.9324,0.9333,0.9342,0.9348,0.9315,0.9333,0.9316,0.9289,0.9282,0.9277,0.9273,0.9259,0.9254,0.9314,0.9314,0.9314,0,0.9181,0.9187,0.9214,0.9213,0.922,0.9251,0.9245,0.9255,0.9274,0.9277,0.929,0.9301,0.9314,0.9308,0.93,0.9304,0.9302,0.9313,0.9276,0.9272,0.9268,0.9256,0.9251,0.9311,0.9312,0.9312,0.9312,0,0.915,0.9154,0.9147,0.9165,0.9171,0.9167,0.9193,0.9195,0.9212,0.9227,0.9225,0.9241,0.9251,0.9251,0.9267,0.9247,0.9254,0.9271,0.9293,0.926,0.9248,0.9244,0.9308,0.9309,0.931,0.931,0,0,0.9088,0.9121,0.9118,0.9126,0.9148,0.9151,0.9148,0.9158,0.9159,0.9171,0.9168,0.9175,0.9191,0.9197,0.9215,0.9209,0.9179,0.9227,0.9227,0.9216,0.9156,0.9142,0.9136,0.9192,0.9191,0.919,0.9154,0,0.9054,0.9053,0.9077,0.9068,0.907,0.91,0.9098,0.911,0.9125,0.9128,0.9143,0.9147,0.9168,0.9172,0.9168,0.9184,0.9167,0.9187,0.9188,0.9188,0.9182,0.913,0.9115,0.908,0.915,0.9149,0.9149,0,0.9015,0.9025,0.9017,0.9038,0.904,0.9038,0.9048,0.9051,0.9066,0.9076,0.9084,0.9104,0.9101,0.9124,0.912,0.9133,0.9135,0.9142,0.9141,0.9141,0.9165,0.9127,0.907,0.9064,0.9142,0.9143,0.9143,0,0.8968,0.898,0.8976,0.8982,0.9008,0.9005,0.9015,0.9031,0.9035,0.9044,0.9046,0.9055,0.9059,0.9064,0.9085,0.91,0.9078,0.9103,0.9086,0.9085,0.9079,0.9078,0.9019,0.9083,0.9083,0.9083,0.9083,0,0.8927,0.892,0.8955,0.8952,0.8945,0.8972,0.8964,0.8977,0.8991,0.899,0.9017,0.9015,0.9044,0.9046,0.9062,0.9056,0.9058,0.9065,0.9069,0.9062,0.9061,0.9062,0.9065,0.9081,0.9082,0.9082,0.9082,0,0.8873,0.8897,0.8894,0.8918,0.8924,0.8918,0.8938,0.8936,0.8952,0.8951,0.8952,0.8977,0.898,0.9002,0.901,0.9021,0.9007,0.9017,0.9003,0.9005,0.8986,0.8987,0.8925,0.8917,0.8987,0.8986,0.8985,0,0.8845,0.884,0.8864,0.8866,0.8875,0.8878,0.8883,0.8909,0.8912,0.8928,0.8923,0.8929,0.8934,0.8937,0.8955,0.8961,0.897,0.8948,0.8971,0.8963,0.8968,0.8967,0.8966,0.8943,0.8942,0.8941,0.894,0,0.8792,0.8803,0.8809,0.8818,0.8822,0.8831,0.884,0.884,0.8869,0.8871,0.8875,0.8879,0.8887,0.8892,0.8901,0.891,0.8929,0.8933,0.8929,0.8921,0.8912,0.8915,0.8987,0.8934,0.8935,0.8935,0.8936,0.8936,0.8748,0.8745,0.8761,0.8766,0.8776,0.8785,0.8784,0.8799,0.8803,0.8812,0.8828,0.8829,0.8842,0.8856,0.8864,0.8865,0.8876,0.8871,0.8869,0.8867,0.8862,0.8913,0.8866,0.8867,0.8867,0.8867,0.8867,0,0.8695,0.8707,0.8711,0.8724,0.8727,0.8746,0.8758,0.8759,0.876,0.8772,0.8777,0.878,0.8784,0.8802,0.8808,0.8805,0.8814,0.8805,0.8805,0.8806,0.8853,0.8855,0.8798,0.8798,0.8798,0.8798,0.8798,0.8798,0.8667,0.8662,0.8675,0.8675,0.8687,0.8688,0.8693,0.8701,0.871,0.8712,0.8716,0.8729,0.8742,0.8749,0.8753,0.8759,0.8759,0.8747,0.8755,0.8797,0.8803,0.881,0.8812,0.8747,0.8747,0.8708,0.8708,0.8708]}]]